Theta_e
319 319 320 320 323 320 319 319 320 321 321 322 321 322 323 323 323 326 325 326 325 325 324 325 325 323 326 322 320 322 321 320 326 343 350 349 349 347 341 342 345 343 343 345
320 320 321 323 322 321 320 320 320 321 322 322 321 322 323 324 328 326 325 324 324 323 323 324 324 326 326 324 326 324 323 321 320 325 334 342 344 346 348 346 348 346 344 346
319 320 321 322 321 321 321 322 321 322 322 321 322 323 322 329 326 325 324 323 323 323 323 322 323 324 326 326 326 327 326 322 321 320 336 338 326 336 346 346 347 348 346 345
319 320 321 322 321 322 322 321 321 323 323 325 323 326 322 329 327 326 324 323 322 321 321 321 322 323 324 325 326 327 326 326 322 320 332 342 343 343 345 347 346 348 346 345
320 321 321 321 321 320 319 320 321 323 324 322 325 330 326 328 329 326 323 322 321 320 320 320 319 322 324 325 325 325 329 327 325 321 326 343 346 346 346 347 346 346 346 345
319 322 321 322 322 321 320 321 325 324 323 326 327 327 325 332 328 326 325 323 321 320 319 319 320 322 324 324 323 323 325 330 326 321 325 339 345 345 346 346 346 346 346 345
319 320 319 319 321 320 319 322 326 326 322 322 321 324 329 331 327 325 324 322 321 320 319 319 319 320 322 323 324 323 321 327 327 322 326 339 345 345 347 346 345 346 344 343
318 321 317 317 318 320 319 326 327 328 323 328 325 331 333 327 325 324 322 322 321 320 319 319 319 319 321 323 324 324 320 322 327 323 328 336 345 347 346 346 345 345 344 342
317 319 317 318 319 319 322 327 326 324 328 323 326 327 328 326 326 325 323 323 321 320 319 319 319 319 321 323 325 323 320 321 326 324 329 335 342 346 345 346 345 345 344 341
317 318 318 318 319 324 326 326 329 329 325 327 325 324 329 326 326 326 323 322 321 320 319 319 319 320 321 323 326 327 321 320 322 326 332 339 342 343 346 345 344 345 343 341
316 318 318 316 319 324 327 329 327 324 323 325 329 326 326 325 324 325 322 321 321 320 318 318 319 320 322 322 325 326 325 321 325 326 332 343 345 344 346 343 343 345 342 343
317 315 318 320 322 323 322 321 323 321 327 328 331 328 325 323 321 323 322 322 320 319 318 318 319 321 323 322 324 329 321 322 329 330 337 341 346 345 344 344 343 345 341 338
317 315 322 322 322 320 319 320 320 322 327 330 329 323 323 323 322 323 322 320 320 319 318 318 319 322 322 323 326 325 325 325 323 335 335 336 344 343 342 344 344 342 333 330
320 321 323 322 324 321 321 322 322 327 329 330 325 326 324 323 323 323 322 320 319 318 318 318 319 321 322 324 326 324 319 319 320 322 324 336 337 341 341 341 334 331 332 324
321 324 324 323 322 322 323 325 328 328 328 326 327 327 324 323 322 323 321 320 319 318 318 318 318 319 321 324 325 324 324 323 321 319 331 332 336 333 330 328 325 321 320 317
319 322 322 324 323 323 326 327 326 327 326 327 326 326 321 321 319 321 320 319 318 317 318 317 317 318 318 322 323 321 322 324 322 323 327 326 326 326 326 325 320 319 317 313
321 322 324 324 324 324 328 328 328 323 325 326 325 323 321 320 321 320 320 317 317 317 317 317 316 316 318 319 321 319 319 322 325 327 323 321 320 316 315 313 312 311 310 309
321 323 322 323 323 327 328 327 325 325 325 321 320 320 321 320 320 320 318 315 316 315 315 316 315 315 314 316 317 318 317 318 319 320 320 316 315 315 312 311 309 308 307 305
321 324 324 324 325 325 328 327 327 325 324 321 318 318 320 318 318 321 318 315 315 314 314 313 315 313 312 312 313 314 314 314 315 316 316 315 313 312 309 308 307 306 305 304
324 324 325 326 328 327 328 323 321 320 324 319 320 317 318 318 320 319 318 315 313 312 311 312 313 310 309 309 309 309 311 310 311 312 312 311 311 310 308 306 305 304 303 302
321 322 323 322 325 326 322 322 321 324 320 321 319 319 318 319 320 320 316 313 312 310 310 310 312 308 306 307 306 306 307 308 309 310 309 308 306 305 304 303 302 302 302 301
321 322 321 322 325 322 321 322 322 321 322 320 319 318 318 316 319 318 316 313 309 309 309 308 310 306 305 305 304 305 305 307 308 308 307 306 305 304 302 301 301 301 300 299
319 321 323 322 320 319 319 318 319 319 318 320 319 318 317 318 320 317 314 312 309 309 308 307 308 304 302 303 303 304 305 306 306 306 304 302 302 301 301 300 300 299 299 299
316 316 315 317 318 316 316 318 317 316 318 317 318 318 317 318 319 316 313 311 309 308 306 306 306 302 301 301 302 303 304 305 304 304 303 303 302 301 300 299 299 298 297 296
313 314 314 314 314 318 317 318 318 319 319 318 318 318 318 319 317 315 311 310 308 306 305 306 303 300 299 300 301 303 304 304 304 303 303 302 300 299 299 299 299 297 295 294
312 313 313 316 316 317 315 315 315 316 316 316 318 318 318 318 317 313 309 307 306 305 304 305 301 299 299 300 301 302 303 304 302 300 299 297 296 295 296 296 296 295 293 294
Wind_Speed
10 4 7 10 3 5 5 6 9 14 13 6 7 11 18 18 12 10 13 17 18 18 16 26 22 10 9 24 27 27 28 29 18 22 28 31 29 26 39 38 38 43 41 36
6 11 8 5 6 7 8 9 10 7 13 11 13 16 22 20 8 13 17 17 16 17 18 19 26 26 19 11 21 26 31 32 31 25 24 27 28 30 30 33 38 44 44 39
8 14 17 4 4 7 7 7 10 11 11 8 14 11 10 5 18 16 16 14 16 17 19 19 20 24 31 25 22 24 30 35 37 33 20 27 26 40 40 40 21 39 45 40
7 8 15 8 7 6 5 9 14 13 10 8 4 14 9 6 11 12 14 16 16 16 19 18 21 21 26 29 27 36 36 38 38 37 25 28 32 36 40 35 33 31 48 43
10 16 11 9 4 7 7 14 13 7 12 5 10 4 6 15 13 13 13 14 13 13 17 19 21 30 19 24 26 26 34 42 41 39 32 31 31 35 36 37 40 41 39 42
16 19 5 3 4 8 11 11 8 7 5 3 5 5 6 4 8 12 14 16 18 16 20 19 25 28 28 27 27 25 24 38 41 40 37 35 35 34 32 29 33 34 33 39
12 15 9 13 10 7 8 5 4 5 5 3 11 5 2 7 9 12 14 15 16 15 18 21 21 19 29 35 37 29 26 30 40 41 39 38 40 36 36 31 31 30 26 36
6 7 15 17 12 7 7 6 4 3 2 6 14 4 2 3 9 8 10 14 17 17 17 18 20 20 29 34 39 37 27 26 33 45 39 39 38 34 36 33 37 36 30 36
5 6 20 20 10 4 5 5 5 4 4 2 4 2 3 11 13 14 16 16 21 22 22 22 22 23 28 33 38 33 25 29 26 39 35 37 39 35 33 34 40 38 36 42
5 12 9 15 12 5 4 2 4 3 3 4 5 6 2 13 11 11 16 17 19 22 23 22 22 23 32 37 33 28 28 30 32 39 36 37 37 38 36 37 43 37 41 42
4 3 9 11 9 9 6 2 5 4 3 3 4 5 2 6 10 8 12 15 18 20 21 21 22 29 32 30 17 18 26 21 33 39 36 35 34 37 37 37 43 38 45 42
2 3 4 16 10 14 3 4 2 3 5 4 3 5 6 9 10 6 12 15 17 19 22 21 20 25 22 26 34 25 8 4 8 29 32 33 31 31 35 38 44 36 45 49
3 3 5 9 7 14 12 16 6 2 3 3 2 6 7 11 12 7 10 15 17 19 22 22 19 18 13 23 26 15 13 22 26 14 23 24 28 30 31 31 35 40 50 49
3 2 4 4 10 9 14 16 16 2 3 3 6 7 7 14 14 8 10 14 17 16 20 21 21 18 16 21 24 20 14 16 20 21 29 23 22 24 21 30 41 48 46 43
3 3 6 13 16 17 19 10 8 5 5 4 6 7 9 13 10 5 8 12 16 18 19 20 20 19 16 20 20 22 26 25 24 23 13 7 8 19 28 27 50 40 45 41
4 5 7 10 14 16 8 8 2 5 3 4 6 5 7 8 9 6 8 12 14 16 17 18 19 20 19 21 17 22 29 37 41 27 13 28 29 36 31 31 33 47 47 42
4 3 2 5 13 15 5 3 4 4 6 3 4 6 5 7 11 4 7 8 12 13 16 16 17 17 19 23 23 18 19 15 15 24 19 32 39 35 33 25 37 42 42 43
5 4 3 5 10 3 2 14 14 15 7 3 7 7 7 6 2 4 2 5 10 13 15 15 14 20 26 24 23 21 17 18 22 15 16 26 34 38 34 33 36 41 39 41
10 5 2 1 3 10 5 6 1 8 1 3 6 8 5 7 7 1 1 3 5 9 11 16 19 21 25 24 20 16 15 14 22 19 15 19 35 45 34 32 36 41 49 45
10 5 3 4 3 3 6 10 10 7 1 10 13 8 7 7 8 4 1 2 5 10 16 18 20 20 24 26 20 17 14 18 20 24 20 22 32 36 40 34 31 39 45 46
1 3 4 4 5 2 5 11 7 5 5 6 7 5 7 5 4 3 4 4 8 12 17 22 17 17 23 25 18 15 14 14 20 31 29 26 33 41 40 43 33 38 41 42
1 3 2 3 3 4 7 4 3 6 2 3 5 6 6 8 6 6 6 7 6 8 16 19 14 15 20 20 12 12 12 14 20 33 36 28 31 33 36 46 38 37 38 39
4 1 3 4 5 5 6 4 4 1 4 3 3 5 8 7 5 7 6 6 6 10 13 16 10 12 17 16 9 10 10 17 24 34 38 32 35 36 35 36 37 36 34 32
7 7 2 6 8 14 11 5 7 8 4 4 4 3 6 5 5 7 6 6 6 10 10 15 11 11 12 12 11 9 14 17 27 38 36 32 36 37 34 32 31 31 29 27
5 7 7 9 10 7 7 5 3 3 5 5 2 3 5 4 7 8 5 6 6 9 12 12 10 9 9 10 12 11 13 20 28 33 35 33 33 35 36 32 26 26 25 28
5 5 3 6 6 2 6 7 7 6 6 7 3 3 5 6 6 11 6 6 7 8 11 10 9 11 10 13 15 13 14 18 27 30 31 30 30 31 36 37 37 33 35 31
Wind_Direction
278 129 227 248 37 323 305 308 291 285 288 10 329 320 296 290 289 46 46 41 30 20 3 6 354 347 296 242 228 225 222 227 222 221 228 232 233 205 202 211 207 204 205 203
309 246 235 255 315 306 299 288 286 301 341 339 318 291 281 292 99 56 43 33 25 12 1 349 340 334 323 280 245 231 221 220 227 229 229 224 240 238 219 216 206 203 201 197
322 293 299 273 310 319 311 311 328 317 314 295 284 290 317 33 58 50 39 28 19 11 354 338 325 320 313 303 282 246 234 227 224 233 218 219 227 251 244 221 216 198 197 196
308 309 334 340 1 21 333 305 291 290 304 287 301 291 309 55 41 48 35 25 8 350 336 321 307 297 298 298 307 282 243 230 222 221 218 209 200 208 231 229 228 213 193 196
292 277 287 294 30 357 266 281 284 296 300 336 12 39 326 42 27 24 22 6 345 340 326 313 316 307 293 304 309 308 270 230 222 217 224 212 208 218 222 215 208 210 187 193
321 336 210 62 336 272 279 345 335 322 289 54 166 124 275 32 24 13 359 354 346 337 326 316 315 309 310 301 303 298 298 238 221 213 222 213 211 216 215 205 203 201 188 188
328 30 1 40 350 330 343 358 1 353 4 253 326 354 195 13 33 20 1 344 325 331 323 321 317 313 314 310 306 303 291 255 218 209 217 217 215 215 220 203 194 186 183 181
355 321 26 331 304 275 326 109 148 258 298 290 304 178 59 48 48 10 355 335 333 334 325 315 306 310 308 304 294 289 282 267 224 210 214 215 215 215 219 203 192 194 185 180
309 295 319 297 348 5 314 11 129 103 344 347 259 173 221 16 13 8 355 341 334 335 329 322 315 313 301 288 280 272 260 250 233 213 209 212 214 216 221 213 199 190 183 178
277 303 296 343 309 55 110 11 333 63 320 297 296 322 346 1 4 352 350 342 339 333 329 322 318 315 312 310 271 261 243 245 243 215 205 207 210 213 217 215 199 191 179 176
2 30 298 311 325 315 36 12 248 148 113 229 306 280 91 359 8 352 337 333 339 334 328 325 319 321 319 324 335 268 266 257 212 202 201 204 209 211 215 214 205 189 169 164
109 240 300 295 276 65 18 289 53 100 280 202 222 273 284 28 9 8 333 337 338 341 331 327 325 331 341 332 336 352 261 220 206 195 199 205 211 210 210 208 202 188 154 151
1 327 325 339 350 346 343 319 284 282 51 211 250 267 329 13 354 357 340 341 341 340 333 331 338 343 343 345 342 358 32 8 357 197 210 226 223 221 211 198 185 170 132 134
120 242 232 227 266 290 304 297 297 130 141 232 230 278 4 356 340 348 344 345 333 339 337 335 337 342 343 344 354 344 350 340 325 333 328 253 223 211 189 163 142 139 143 137
150 256 291 292 302 303 306 340 38 60 310 241 328 347 2 337 327 11 350 342 341 339 342 339 336 336 336 349 354 354 5 336 328 335 289 170 140 146 121 142 116 124 125 129
311 285 314 301 291 291 307 328 350 254 304 20 346 330 341 304 342 27 350 340 339 334 336 339 336 333 340 340 2 6 11 356 291 288 142 106 107 118 133 139 132 128 124 120
248 230 275 280 305 324 291 200 272 54 82 18 349 282 302 343 351 14 331 333 334 335 330 338 343 335 336 340 350 14 10 26 40 141 138 117 111 100 108 117 114 105 114 121
215 252 213 277 313 317 70 25 19 352 87 356 305 299 322 355 10 187 256 295 334 342 337 336 341 342 343 343 2 0 15 36 48 69 104 106 107 109 106 110 110 106 112 106
192 208 280 259 326 276 35 5 7 276 246 307 321 332 21 349 328 211 211 280 312 343 334 333 337 344 341 349 1 13 17 45 62 51 68 119 117 113 107 112 113 114 109 107
173 165 128 300 283 277 19 315 333 302 173 345 332 335 7 353 357 315 210 302 353 3 344 337 341 352 346 354 5 21 36 55 62 70 69 92 107 111 115 112 113 113 113 111
13 297 239 271 271 160 248 30 336 34 265 322 35 9 351 333 248 330 110 26 21 2 350 344 353 8 355 356 11 12 29 62 88 95 83 86 100 104 110 107 108 108 109 109
342 261 291 290 302 315 352 46 20 234 272 323 359 344 327 313 331 37 55 46 20 3 352 349 356 15 4 8 15 10 30 79 89 100 99 85 99 107 108 107 108 107 110 109
303 216 248 197 228 314 357 279 261 56 61 39 4 323 335 335 4 74 55 55 25 1 348 344 20 27 18 24 31 20 50 91 99 94 88 90 96 95 101 108 108 106 108 105
330 13 338 351 341 317 300 356 40 13 354 318 304 15 329 322 45 71 58 48 28 356 351 342 29 38 27 39 63 56 85 96 99 100 99 101 98 98 97 97 101 103 105 109
242 320 305 300 291 304 349 330 285 303 325 323 344 354 320 24 66 89 73 65 19 355 343 355 55 45 40 54 77 84 94 110 104 103 105 104 103 104 109 105 107 109 113 123
197 233 238 272 302 299 285 307 322 307 277 283 152 298 330 114 105 104 99 77 45 355 355 13 57 58 57 69 74 84 97 102 105 103 104 107 106 101 101 102 102 107 114 116